Weather History for Iron Mountain, MI

Change the Weather History Date:

Sunday, November 6, 2011

  Actual Average Record
Temperature  
Mean Temperature 46 °F -  
Max Temperature 55 °F 42 °F 66 °F (2001)
Min Temperature 39 °F 26 °F -1 °F (1951)
Degree Days  
Heating Degree Days 18    
Moisture  
Dew Point 39 °F    
Average Humidity 75    
Maximum Humidity 89    
Minimum Humidity 54    
Precipitation  
Precipitation 0.00 in - - ()
Sea Level Pressure  
Sea Level Pressure 29.84 in    
Wind  
Wind Speed 10 mph (South)    
Max Wind Speed 17 mph    
Max Gust Speed 31 mph    
Visibility 7 miles    
Events      
Averages and records for this station are not official NWS values.
T = Trace of Precipitation, MM = Missing Value Source: NWS Daily Summary

Daily Weather History Graph

Daily Weather History Graph

Search for Another Location

Airport:

Trip Planner

Search our weather history database for the weather conditions in past years. The results will help you decide how hot, cold, wet, or windy it might be!

Date:

Astronomy

Nov. 06, 2011 Rise Set
Actual Time 6:39 AM CST 4:32 PM CST
Civil Twilight 6:07 AM CST 5:03 PM CST
Nautical Twilight 5:32 AM CST 5:39 PM CST
Astronomical Twilight 4:57 AM CST 6:13 PM CST
Moon 2:24 PM CST (11/6) 2:35 AM CST (11/6)
Length of Visible Light 10h 55m
Length of Day
9h 52m
Waxing Gibbous, 86% of the Moon is Illuminated
Nov 6
Waxing Gibbous
Nov 10
Full
Nov 18
Last Quarter
Nov 25
New
Dec 2
First Quarter

Hourly Weather History & Observations

Time (CST) Temp. Windchill Dew Point Humidity Pressure Visibility Wind Dir Wind Speed Gust Speed Precip Events Conditions
12:54 AM 39.9 °F 35.8 °F 37.0 °F 89% 29.97 in 5.0 mi SE 5.8 mph - N/A   Clear
1:54 AM 39.9 °F 34.5 °F 37.0 °F 89% 29.96 in 6.0 mi SE 8.1 mph - N/A   Clear
1:54 AM 39.9 °F 33.9 °F 36.0 °F 86% 29.93 in 6.0 mi SE 9.2 mph - N/A   Clear
2:54 AM 39.0 °F 33.4 °F 36.0 °F 89% 29.92 in 7.0 mi SE 8.1 mph - N/A   Clear
3:54 AM 39.0 °F 32.8 °F 36.0 °F 89% 29.91 in 7.0 mi SE 9.2 mph - N/A   Clear
4:54 AM 39.0 °F 34.0 °F 36.0 °F 89% 29.91 in 7.0 mi SSE 6.9 mph - N/A   Clear
5:54 AM 39.0 °F 33.4 °F 36.0 °F 89% 29.88 in 7.0 mi SE 8.1 mph - N/A   Clear
6:54 AM 39.0 °F 34.0 °F 35.1 °F 86% 29.88 in 5.0 mi SE 6.9 mph - N/A   Clear
7:54 AM 41.0 °F 36.4 °F 36.0 °F 82% 29.87 in 6.0 mi SSE 6.9 mph - N/A   Haze
8:54 AM 45.0 °F 38.9 °F 39.0 °F 80% 29.84 in 6.0 mi SSE 12.7 mph - N/A   Haze
10:28 AM 48.2 °F - 41.0 °F 76% 29.79 in 5.0 mi South 17.3 mph 26.5 mph N/A   Haze
10:54 AM 50.0 °F - 42.1 °F 74% 29.79 in 5.0 mi South 11.5 mph 23.0 mph N/A   Haze
11:54 AM 51.1 °F - 43.0 °F 74% 29.78 in 6.0 mi South 16.1 mph 31.1 mph N/A   Haze
12:54 PM 53.1 °F - 44.1 °F 71% 29.75 in 6.0 mi South 12.7 mph 25.3 mph N/A   Haze
1:54 PM 53.1 °F - 44.1 °F 71% 29.76 in 6.0 mi South 11.5 mph 25.3 mph N/A   Haze
2:39 PM 53.6 °F - 44.6 °F 72% 29.74 in 7.0 mi South 11.5 mph 23.0 mph N/A   Overcast
2:54 PM 54.0 °F - 44.1 °F 69% 29.76 in 7.0 mi South 15.0 mph 23.0 mph N/A   Overcast
3:54 PM 54.0 °F - 44.1 °F 69% 29.76 in 8.0 mi South 13.8 mph 23.0 mph N/A   Mostly Cloudy
4:54 PM 53.1 °F - 44.1 °F 71% 29.77 in 9.0 mi South 13.8 mph - N/A   Mostly Cloudy
5:54 PM 53.1 °F - 44.1 °F 71% 29.79 in 10.0 mi South 12.7 mph - N/A   Mostly Cloudy
6:54 PM 53.1 °F - 44.1 °F 71% 29.80 in 10.0 mi South 10.4 mph - N/A   Mostly Cloudy
7:54 PM 54.0 °F - 42.1 °F 64% 29.82 in 10.0 mi SW 13.8 mph 26.5 mph N/A   Scattered Clouds
8:54 PM 51.1 °F - 35.1 °F 54% 29.86 in 10.0 mi WSW 11.5 mph 23.0 mph N/A   Clear
9:54 PM 48.9 °F - 33.1 °F 54% 29.89 in 10.0 mi WSW 10.4 mph 20.7 mph N/A   Clear
10:54 PM 46.9 °F - 30.9 °F 54% 29.91 in 10.0 mi WSW 11.5 mph 25.3 mph N/A   Clear